Villa Grove, CO

11:15 PM MST on January 19, 2017 (GMT -0700)
Monarch Pass

Weather History for KMYP - April, 2013

Change the Weather History Date:

Thursday, April 11, 2013

  Actual Average (KGUC) Record (KGUC)
Temperature  
Mean Temperature 16 °F -  
Max Temperature 24 °F 49 °F 66 °F (2012)
Min Temperature 8 °F 21 °F 8 °F (1999)
Degree Days  
Heating Degree Days 49    
Moisture  
Dew Point 14 °F    
Average Humidity 90    
Maximum Humidity 100    
Minimum Humidity 79    
Precipitation  
Precipitation 0.00 in - - ()
Sea Level Pressure  
Sea Level Pressure 30.01 in    
Wind  
Wind Speed 30 mph (WSW)    
Max Wind Speed 41 mph    
Max Gust Speed 53 mph    
Averages and records for this station are not official NWS values.
T = Trace of Precipitation, MM = Missing Value Source: NWS Daily Summary

Daily Weather History Graph

Daily Weather History Graph

Search for Another Location

Airport or City:

Trip Planner

Search our weather history database for the weather conditions in past years. The results will help you decide how hot, cold, wet, or windy it might be!

Date:

Astronomy

Apr. 11, 2013 Rise Set
Actual Time 6:34 AM MDT 7:37 PM MDT
Civil Twilight 6:07 AM MDT 8:04 PM MDT
Nautical Twilight 5:35 AM MDT 8:37 PM MDT
Astronomical Twilight 5:01 AM MDT 9:10 PM MDT
Moon 7:08 AM MDT (4/11) 9:13 PM MDT (4/11)
Length of Visible Light 13h 57m
Length of Day
13h 03m
New Moon, 2% of the Moon is Illuminated
Apr 11
New Moon
Apr 18
First Quarter
Apr 25
Full
May 2
Last Quarter
May 9
New

Hourly Weather History & Observations

Time (MDT) Temp. Windchill Dew Point Humidity Pressure Visibility Wind Dir Wind Speed Gust Speed Precip Events Conditions
12:00 AM 8.6 °F - 5.0 °F 85% 29.96 in - North - - N/A   Overcast
12:20 AM 8.6 °F - 5.0 °F 85% 29.95 in - North - - N/A   Overcast
12:40 AM 8.6 °F - 5.0 °F 85% 29.97 in - North - - N/A   Overcast
1:00 AM 8.6 °F - 5.0 °F 85% 29.96 in - North - - N/A   Overcast
1:20 AM 8.6 °F - 5.0 °F 85% 29.97 in - North - - N/A   Mostly Cloudy
1:40 AM 8.6 °F - 5.0 °F 85% 29.97 in - North - - N/A   Unknown
2:00 AM 8.6 °F - 3.2 °F 79% 29.99 in - North - - N/A   Unknown
2:20 AM 8.6 °F - 3.2 °F 79% 29.99 in - North - - N/A   Overcast
2:40 AM 8.6 °F - 5.0 °F 85% 29.98 in - North - - N/A   Overcast
3:00 AM 8.6 °F - 5.0 °F 85% 29.98 in - North - - N/A   Overcast
3:20 AM 8.6 °F - 5.0 °F 85% 29.98 in - North - - N/A   Overcast
3:40 AM 8.6 °F - 5.0 °F 85% 29.97 in - North - - N/A   Overcast
4:00 AM 8.6 °F - 5.0 °F 85% 29.96 in - North - - N/A   Overcast
4:20 AM 10.4 °F - 5.0 °F 79% 29.96 in - North - - N/A   Overcast
4:40 AM 10.4 °F - 5.0 °F 79% 29.95 in - North - - N/A   Overcast
5:00 AM 10.4 °F - 5.0 °F 79% 29.94 in - North - - N/A   Overcast
5:20 AM 10.4 °F - 5.0 °F 79% 29.94 in - North - - N/A   Overcast
5:40 AM 10.4 °F - 6.8 °F 85% 29.93 in - North - - N/A   Overcast
6:00 AM 10.4 °F - 8.6 °F 92% 29.93 in - North - - N/A   Overcast
6:20 AM 12.2 °F - 8.6 °F 85% 29.93 in - North - - N/A   Unknown
6:40 AM 12.2 °F - 10.4 °F 92% 29.94 in - North - - N/A   Unknown
7:00 AM 12.2 °F - 8.6 °F 85% 29.94 in - North - - N/A   Unknown
7:20 AM 12.2 °F - 8.6 °F 85% 29.94 in - North - - N/A   Overcast
7:40 AM 12.2 °F - 8.6 °F 85% 29.93 in - North - - N/A   Overcast
8:00 AM 12.2 °F - 10.4 °F 92% 29.94 in - North - - N/A   Overcast
8:20 AM 12.2 °F - 10.4 °F 92% 29.94 in - North - - N/A   Overcast
8:40 AM 14.0 °F - 10.4 °F 86% 29.95 in - North - - N/A   Overcast
9:00 AM 14.0 °F - 12.2 °F 93% 29.96 in - North - - N/A   Overcast
9:20 AM 14.0 °F - 12.2 °F 93% 29.96 in - North - - N/A   Overcast
9:40 AM 14.0 °F - 12.2 °F 93% 29.97 in - North - - N/A   Overcast
10:00 AM 15.8 °F - 12.2 °F 86% 29.98 in - North - - N/A   Overcast
10:20 AM 17.6 °F - 14.0 °F 86% 29.99 in - North - - N/A   Overcast
10:40 AM 17.6 °F - 14.0 °F 86% 30.00 in - North - - N/A   Overcast
11:20 AM 19.4 °F 2.1 °F 17.6 °F 93% 30.01 in - WSW 24.2 mph - N/A   Overcast
11:40 AM 19.4 °F 1.1 °F 17.6 °F 93% 30.01 in - WSW 27.6 mph 36.8 mph N/A   Overcast
12:00 PM 21.2 °F - 19.4 °F 93% 30.01 in - North - - N/A   Overcast
12:20 PM 21.2 °F 3.3 °F 19.4 °F 93% 30.01 in - West 28.8 mph 36.8 mph N/A   Overcast
12:40 PM 21.2 °F 0.7 °F 19.4 °F 93% 30.01 in - West 40.3 mph 52.9 mph N/A   Overcast
12:59 PM 23.0 °F 3.4 °F 21.2 °F 93% 30.01 in - West 39.1 mph 50.6 mph N/A   Overcast
1:20 PM 23.0 °F 3.7 °F 21.2 °F 93% 30.02 in - West 38.0 mph 48.3 mph N/A   Unknown
1:40 PM 23.0 °F 4.1 °F 21.2 °F 93% 30.02 in - West 35.7 mph 46.0 mph N/A   Overcast
2:00 PM 23.0 °F 3.4 °F 21.2 °F 93% 30.02 in - West 39.1 mph 48.3 mph N/A   Unknown
2:20 PM 23.0 °F 3.7 °F 23.0 °F 100% 30.03 in - West 38.0 mph 46.0 mph N/A   Unknown
2:40 PM 23.0 °F 4.6 °F 21.2 °F 93% 30.03 in - West 33.4 mph 49.5 mph N/A   Unknown
3:00 PM 23.0 °F - 21.2 °F 93% 30.04 in - North - - N/A   Unknown
3:20 PM 24.8 °F 6.6 °F 23.0 °F 93% 30.03 in - West 35.7 mph 46.0 mph N/A   Unknown
3:40 PM 24.8 °F 6.4 °F 23.0 °F 93% 30.04 in - West 36.8 mph 43.7 mph N/A   Unknown
4:00 PM 24.8 °F 6.2 °F 23.0 °F 93% 30.03 in - West 38.0 mph 44.9 mph N/A   Unknown
4:20 PM 24.8 °F 7.1 °F 23.0 °F 93% 30.02 in - West 33.4 mph 41.4 mph N/A   Unknown
4:40 PM 23.0 °F 5.1 °F 21.2 °F 93% 30.03 in - West 31.1 mph 41.4 mph N/A   Overcast
5:00 PM 24.8 °F 5.5 °F 23.0 °F 93% 30.02 in - West 41.4 mph 46.0 mph N/A   Unknown
5:20 PM 23.0 °F 4.9 °F 21.2 °F 93% 30.03 in - West 32.2 mph 44.9 mph N/A   Unknown
5:40 PM 24.8 °F 8.1 °F 23.0 °F 93% 30.05 in - West 28.8 mph 38.0 mph N/A   Unknown
6:20 PM 23.0 °F 4.4 °F 21.2 °F 93% 30.04 in - West 34.5 mph 42.6 mph N/A   Overcast
6:40 PM 23.0 °F 6.0 °F 21.2 °F 93% 30.06 in - West 27.6 mph 39.1 mph N/A   Overcast
7:00 PM 23.0 °F 8.0 °F 21.2 °F 93% 30.06 in - WSW 20.7 mph 28.8 mph N/A   Overcast
7:20 PM 23.0 °F 7.6 °F 21.2 °F 93% 30.06 in - West 21.9 mph 31.1 mph N/A   Overcast
7:40 PM 23.0 °F 7.6 °F 21.2 °F 93% 30.06 in - WSW 21.9 mph 33.4 mph N/A   Overcast
8:00 PM 23.0 °F 8.7 °F 21.2 °F 93% 30.07 in - West 18.4 mph 27.6 mph N/A   Overcast
8:20 PM 21.2 °F 3.3 °F 19.4 °F 93% 30.07 in - West 28.8 mph - N/A   Overcast
8:40 PM 21.2 °F 3.3 °F 19.4 °F 93% 30.07 in - West 28.8 mph - N/A   Unknown
9:00 PM 21.2 °F 4.5 °F 19.4 °F 93% 30.08 in - West 24.2 mph - N/A   Unknown
9:20 PM 21.2 °F 5.6 °F 19.4 °F 93% 30.09 in - West 20.7 mph - N/A   Unknown
9:40 PM 21.2 °F 6.4 °F 19.4 °F 93% 30.10 in - WSW 18.4 mph - N/A   Unknown
10:00 PM 21.2 °F 8.9 °F 19.4 °F 93% 30.11 in - SW 12.7 mph 26.5 mph N/A   Overcast
10:20 PM 21.2 °F 8.3 °F 19.4 °F 93% 30.10 in - WSW 13.8 mph - N/A   Overcast
10:40 PM 21.2 °F 4.9 °F 19.4 °F 93% 30.10 in - West 23.0 mph - N/A   Overcast
11:00 PM 21.2 °F - 19.4 °F 93% 30.11 in - North - - N/A   Overcast
11:20 PM 21.2 °F - 19.4 °F 93% 30.11 in - North - - N/A   Overcast
11:40 PM 21.2 °F - 19.4 °F 93% 30.10 in - North - - N/A   Overcast